Location: Elstree
(51.6403°N, 0.2969°W)
Time: 21:09:39
(UTC+00:00)

deb Delta 107 - Pass Details

Date: 30 January 2022
Orbit: 707 x 861 km, 97.7° (Epoch: 21 May)

Event Time Altitude Azimuth Distance (km) Brightness Sun altitude
Rises 18:45:43 0° 200° (SSW) 3,196 ? -18.4°
Reaches altitude 10° 18:48:26 10° 214° (SW) 2,252 ? -18.9°
Maximum altitude 18:52:26 24° 268° (W) 1,473 ? -19.5°
Drops below altitude 10° 18:56:22 10° 323° (NW) 2,211 ? -20.1°
Sets 18:59:01 0° 337° (NNW) 3,125 ? -20.5°
